SM7GXQ Weather Reports


Display with metric or nautical units.
time (UTC)temp
F
wind
direction
speed
MPH
gust
MPH
rain 1hr
in
rain 24hr
in
rain mn
in
humidity
%
barometer
mb
20260505091503 57 262 3.0 7.0 0.00 0.00 0.00 61 1008.0
20260505090004 56 265 3.0 8.0 0.00 0.00 0.00 66 1007.9
20260505084504 55 269 2.0 6.0 0.00 0.00 0.00 69 1007.9
20260505083004 55 252 3.0 7.0 0.00 0.00 0.00 67 1008.0
20260505074504 54 249 3.0 6.0 0.00 0.00 0.00 69 1008.1
20260505071504 52 275 3.0 6.0 0.00 0.00 0.00 71 1008.2
20260505064504 51 283 2.0 6.0 0.00 0.00 0.00 75 1008.2
20260505063005 50 277 3.0 8.0 0.00 0.00 0.00 76 1008.2
20260505060004 49 276 3.0 8.0 0.00 0.00 0.00 79 1008.3
20260505054504 49 268 3.0 8.0 0.00 0.00 0.00 82 1008.3
20260505053005 48 276 5.0 8.0 0.00 0.00 0.00 82 1008.2
20260505040005 47 250 3.0 8.0 0.00 0.00 0.00 85 1007.8
20260505033004 46 254 2.0 9.0 0.00 0.00 0.00 85 1007.6
20260505023004 46 263 2.0 7.0 0.00 0.00 0.00 83 1007.6
20260505020004 47 267 3.0 8.0 0.00 0.00 0.00 82 1007.6
20260505014504 47 267 3.0 9.0 0.00 0.00 0.00 81 1007.6
20260505013003 47 262 3.0 8.0 0.00 0.00 0.00 81 1007.6
20260505011504 48 238 3.0 7.0 0.00 0.00 0.00 79 1007.6
20260505010005 48 258 2.0 7.0 0.00 0.00 0.00 78 1007.6
20260505004504 49 247 3.0 7.0 0.00 0.00 0.00 77 1007.6
20260505000004 49 225 3.0 8.0 0.00 0.00 0.00 74 1007.6
20260504231504 50 235 3.0 6.0 0.00 0.01 0.00 69 1007.6
20260504224504 51 251 2.0 7.0 0.00 0.02 0.00 68 1007.7
20260504223004 51 250 2.0 7.0 0.00 0.02 0.00 67 1007.9
20260504214504 52 256 2.0 5.0 0.00 0.02 0.03 65 1007.9
20260504213006 53 245 1.0 7.0 0.00 0.02 0.03 65 1007.9
20260504210005 53 241 2.0 7.0 0.00 0.02 0.03 67 1007.7
20260504204505 54 263 3.0 9.0 0.00 0.02 0.03 67 1007.6
20260504203005 54 249 3.0 8.0 0.00 0.02 0.03 66 1007.6
20260504200005 55 239 2.0 10.0 0.00 0.02 0.03 68 1007.4
20260504194505 55 246 2.0 8.0 0.00 0.02 0.03 68 1007.1
20260504193005 55 246 2.0 6.0 0.00 0.02 0.03 69 1007.1
20260504191505 56 225 1.0 8.0 0.00 0.02 0.03 68 1006.6
20260504190004 57 226 3.0 9.0 0.00 0.02 0.03 66 1006.6
20260504183005 58 257 3.0 10.0 0.00 0.02 0.03 64 1006.4
20260504180005 58 254 6.0 10.0 0.00 0.02 0.03 64 1006.0
20260504173005 60 250 5.0 10.0 0.00 0.02 0.03 59 1005.6